Weather History for Columbus, GA

Change the Weather History Date:

Saturday, October 27, 2012

  Actual Average Record
Temperature  
Mean Temperature 65 °F 63 °F  
Max Temperature 73 °F 74 °F 89 °F (1984)
Min Temperature 56 °F 52 °F 31 °F (1962)
Degree Days  
Heating Degree Days 0 4  
Month to date heating degree days 11 56  
Since 1 July heating degree days 11 59  
Cooling Degree Days 0 2  
Month to date cooling degree days 117 110  
Year to date cooling degree days 2607 2332  
Growing Degree Days 15 (Base 50)    
Moisture  
Dew Point 54 °F    
Average Humidity 69    
Maximum Humidity 84    
Minimum Humidity 53    
Precipitation  
Precipitation 0.00 in 0.09 in 2.11 in (2009)
Month to date precipitation 1.04 2.24  
Year to date precipitation 28.85 38.04  
Sea Level Pressure  
Sea Level Pressure 29.83 in    
Wind  
Wind Speed 9 mph (NNW)    
Max Wind Speed 18 mph    
Max Gust Speed 23 mph    
Visibility 10 miles    
Events      
T = Trace of Precipitation, MM = Missing Value Source: NWS Daily Summary

Daily Weather History Graph

Daily Weather History Graph

Search for Another Location

Airport:

Trip Planner

Search our weather history database for the weather conditions in past years. The results will help you decide how hot, cold, wet, or windy it might be!

Date:

Astronomy

Oct. 27, 2012 Rise Set
Actual Time 7:53 AM EDT 6:53 PM EDT
Civil Twilight 7:28 AM EDT 7:18 PM EDT
Nautical Twilight 6:59 AM EDT 7:47 PM EDT
Astronomical Twilight 6:30 AM EDT 8:16 PM EDT
Moon 5:35 PM EDT (10/27) 5:52 AM EDT (10/27)
Length of Visible Light 11h 50m
Length of Day
10h 59m
Waxing Gibbous, 96% of the Moon is Illuminated
Oct 27
Waxing Gibbous
Oct 29
Full
Nov 6
Last Quarter
Nov 13
New
Nov 20
First Quarter

Hourly Weather History & Observations

Time (EDT) Temp. Dew Point Humidity Pressure Visibility Wind Dir Wind Speed Gust Speed Precip Events Conditions
12:51 AM 68.0 °F 57.2 °F 68% 29.89 in 10.0 mi NNW 4.6 mph - N/A   Clear
1:51 AM 66.0 °F 57.0 °F 73% 29.87 in 10.0 mi North 5.8 mph - N/A   Clear
2:51 AM 66.0 °F 57.0 °F 73% 29.84 in 10.0 mi Calm Calm - N/A   Clear
3:51 AM 66.0 °F 55.9 °F 70% 29.83 in 10.0 mi Calm Calm - N/A   Clear
4:51 AM 64.9 °F 55.9 °F 73% 29.82 in 10.0 mi NNW 4.6 mph - N/A   Clear
5:51 AM 63.0 °F 55.9 °F 78% 29.82 in 10.0 mi NNW 5.8 mph - N/A   Clear
6:51 AM 62.1 °F 55.9 °F 80% 29.84 in 10.0 mi North 3.5 mph - N/A   Clear
7:51 AM 62.1 °F 55.0 °F 78% 29.85 in 10.0 mi NNW 3.5 mph - N/A   Clear
8:51 AM 62.1 °F 55.9 °F 80% 29.87 in 10.0 mi North 5.8 mph - N/A   Clear
9:51 AM 62.6 °F 57.2 °F 82% 29.88 in 10.0 mi NNW 11.5 mph - N/A   Scattered Clouds
10:29 AM 64.4 °F 57.2 °F 77% 29.89 in 10.0 mi North 8.1 mph 18.4 mph N/A   Mostly Cloudy
10:51 AM 64.0 °F 55.9 °F 75% 29.87 in 10.0 mi North 10.4 mph - N/A   Mostly Cloudy
10:58 AM 64.4 °F 55.4 °F 73% 29.88 in 10.0 mi NNW 9.2 mph - N/A   Clear
11:51 AM 66.9 °F 57.0 °F 70% 29.86 in 10.0 mi NNW 8.1 mph - N/A   Overcast
12:51 PM 68.0 °F 57.0 °F 68% 29.85 in 10.0 mi NW 6.9 mph - N/A   Mostly Cloudy
1:51 PM 71.1 °F 55.9 °F 59% 29.81 in 10.0 mi North 10.4 mph - N/A   Clear
2:51 PM 72.0 °F 55.9 °F 57% 29.78 in 10.0 mi NNW 12.7 mph - N/A   Clear
3:51 PM 73.0 °F 55.0 °F 53% 29.76 in 10.0 mi North 10.4 mph - N/A   Clear
4:51 PM 71.1 °F 54.0 °F 55% 29.76 in 10.0 mi NW 17.3 mph 21.9 mph N/A   Clear
5:51 PM 66.9 °F 52.0 °F 59% 29.78 in 10.0 mi NNW 12.7 mph - N/A   Clear
6:51 PM 63.0 °F 51.1 °F 65% 29.81 in 10.0 mi NNW 15.0 mph 21.9 mph N/A   Clear
7:32 PM 60.8 °F 51.8 °F 72% 29.83 in 10.0 mi NNW 13.8 mph 19.6 mph N/A   Mostly Cloudy
7:51 PM 61.0 °F 50.0 °F 67% 29.82 in 10.0 mi NNW 11.5 mph 19.6 mph N/A   Overcast
8:51 PM 60.8 °F 48.2 °F 63% 29.83 in 10.0 mi North 10.4 mph 19.6 mph N/A   Overcast
9:13 PM 60.8 °F 48.2 °F 63% 29.83 in 10.0 mi NNW 8.1 mph - N/A   Scattered Clouds
9:51 PM 59.0 °F 48.0 °F 67% 29.83 in 10.0 mi NNW 9.2 mph - N/A   Clear
10:51 PM 57.0 °F 48.0 °F 72% 29.83 in 10.0 mi NNW 9.2 mph - N/A   Clear
11:51 PM 55.9 °F 46.9 °F 72% 29.84 in 10.0 mi NNW 10.4 mph - N/A   Mostly Cloudy